Theta_e
310 308 307 305 304 305 309 308 305 304 306 308 306 306 303 308 307 307 309 310 308 305 299 299 302 303 304 304 303 303 304 306 307 314 315 313 308 312 314 317 316 322 328 331 335
306 304 303 303 302 301 302 302 302 301 301 302 304 308 308 308 308 308 307 308 307 300 298 300 300 302 303 305 304 303 303 304 306 305 306 305 305 304 311 310 315 320 315 317 332
303 301 301 300 301 302 302 302 301 301 302 305 306 308 308 306 307 309 306 304 300 301 301 301 302 304 304 304 304 304 304 303 304 304 304 304 304 304 304 309 317 315 314 313 317
300 300 300 301 301 301 301 300 300 300 302 305 307 308 307 307 297 305 303 302 300 301 302 302 302 303 304 304 304 302 303 303 305 304 304 305 303 303 303 303 309 310 310 310 315
300 300 301 301 301 300 299 299 300 300 302 306 307 308 305 305 305 304 304 304 303 301 301 302 302 303 303 303 302 301 301 303 302 302 302 303 304 304 304 302 303 306 308 307 310
301 301 301 300 299 298 298 298 299 300 301 302 305 307 307 303 304 304 304 301 303 302 302 301 302 302 303 303 302 302 303 302 302 302 302 304 303 303 304 303 302 304 305 307 308
301 300 300 298 298 298 298 298 300 300 301 300 304 307 305 303 304 304 302 301 301 301 301 302 302 302 303 303 303 303 303 302 301 301 302 303 302 303 302 302 303 302 305 306 307
300 299 298 298 298 298 298 298 299 301 300 301 306 307 304 303 304 302 301 300 300 300 301 301 301 301 302 303 304 304 303 303 300 300 300 300 300 300 301 301 302 302 302 303 306
300 299 298 298 297 300 299 298 299 301 301 303 306 306 303 303 301 300 300 301 301 300 300 301 301 302 303 304 303 304 303 303 302 302 302 302 302 302 301 302 302 302 301 303 305
299 298 298 297 297 302 300 298 298 302 298 302 304 299 301 301 300 300 299 300 300 300 300 302 301 303 303 304 303 302 304 303 303 301 302 302 302 300 300 301 301 300 299 301 303
299 298 297 297 299 301 300 297 296 294 297 298 297 299 299 300 300 300 300 300 299 299 299 299 302 304 303 304 304 303 304 304 303 302 303 303 303 302 300 299 299 299 298 299 300
299 298 297 297 300 301 299 299 299 297 299 297 299 300 300 300 300 298 299 298 298 298 298 299 301 300 301 302 303 304 305 305 303 301 302 303 303 301 300 300 300 300 299 298 300
298 298 297 297 301 301 300 299 301 299 297 299 301 301 299 299 299 298 299 298 298 298 299 300 300 299 300 303 305 304 303 302 304 304 304 303 303 302 302 300 300 300 300 299 298
298 297 297 297 299 301 300 299 300 299 295 298 297 299 298 297 298 298 300 298 298 299 298 299 299 301 301 302 302 304 303 303 303 304 304 302 303 301 302 302 300 300 300 299 299
298 297 297 298 301 301 298 297 299 299 292 296 297 298 296 297 297 298 298 297 298 298 298 299 299 299 300 300 301 300 302 303 304 305 304 303 305 302 301 302 300 300 300 299 299
298 297 299 298 300 297 296 298 298 294 293 295 296 295 296 297 298 297 296 296 297 299 299 298 297 298 300 301 302 302 303 304 304 306 305 304 305 302 301 302 301 300 299 300 299
298 297 300 299 298 296 298 297 295 294 293 294 296 296 296 298 297 296 295 296 296 292 296 295 296 299 301 300 300 302 304 299 297 298 298 302 304 303 301 301 301 300 299 299 299
298 298 301 301 296 295 299 293 291 284 287 295 296 296 297 296 296 295 294 295 296 295 295 292 294 297 298 300 302 302 304 304 305 304 304 302 306 304 304 304 304 300 300 299 298
297 300 301 299 295 298 291 290 288 286 294 296 295 291 289 294 295 294 294 294 295 295 294 295 294 298 297 301 303 306 302 302 307 305 308 308 306 306 306 305 305 305 300 298 297
299 300 301 295 297 295 290 292 287 294 295 294 294 292 288 290 294 294 294 295 295 294 295 296 296 297 298 300 302 303 300 301 305 307 306 307 307 307 302 302 309 308 299 299 298
300 294 298 295 296 289 288 281 289 293 295 294 290 293 292 294 296 294 295 295 294 294 295 296 297 297 298 300 299 300 298 298 298 302 309 308 308 301 297 299 312 310 306 306 300
297 293 299 296 291 280 283 284 294 294 296 297 296 295 290 290 289 294 296 295 294 295 297 296 298 297 297 299 299 298 297 295 297 303 304 308 308 299 293 303 309 309 309 309 309
290 291 297 293 288 281 284 293 294 294 295 296 296 296 288 289 290 289 294 294 294 296 297 298 298 297 295 299 297 296 294 293 299 299 301 301 302 294 289 299 303 305 305 305 304
291 292 288 289 287 290 287 287 289 293 294 295 296 295 289 284 291 289 295 295 295 295 299 296 298 298 298 298 295 294 293 292 293 292 295 295 293 289 287 292 299 301 301 301 301
289 286 282 286 285 293 291 292 294 292 295 294 294 289 290 286 284 286 292 295 295 296 296 296 296 298 299 299 295 293 294 290 289 289 293 294 291 288 286 288 293 296 296 296 296
291 289 283 281 290 295 295 292 296 294 294 292 289 289 287 287 290 290 294 294 294 295 295 297 296 298 299 298 295 293 292 291 289 288 289 291 290 288 285 285 286 289 291 291 291
294 293 290 291 292 288 293 294 294 293 293 293 293 292 287 288 290 291 292 293 294 294 295 296 297 293 298 300 300 294 292 292 289 287 287 286 287 288 284 282 281 283 284 286 286
Wind_Speed
7 8 9 10 11 13 13 14 16 17 18 18 20 21 22 24 28 9 4 2 2 11 13 15 12 15 13 3 3 1 2 5 5 2 6 8 7 3 4 3 5 5 5 14 27
8 9 10 11 12 13 14 16 18 19 19 19 20 20 22 23 22 3 1 2 6 11 12 11 7 12 3 3 4 3 4 4 5 5 4 8 7 8 5 8 5 6 13 25 7
10 11 12 13 15 16 17 18 19 20 20 21 20 20 21 20 4 2 1 5 9 10 9 9 8 2 3 2 4 4 5 6 10 11 8 5 9 3 6 4 3 6 12 11 12
10 11 12 14 16 18 19 21 20 20 20 21 18 17 20 6 3 1 4 8 10 8 7 8 5 5 3 4 3 6 8 8 6 7 8 10 5 8 10 11 6 7 9 6 9
11 12 14 16 19 21 22 23 20 20 21 21 17 12 9 3 6 4 7 10 11 10 6 3 3 2 3 5 7 7 10 8 10 14 13 11 9 12 19 8 8 5 7 11 9
11 13 16 18 21 22 24 23 20 21 20 15 12 5 1 2 3 4 11 15 12 9 5 5 4 4 7 4 6 4 10 15 14 14 10 13 14 6 12 6 8 10 11 12 12
12 15 17 20 22 25 25 25 24 19 14 10 6 2 2 7 6 12 10 13 13 13 5 11 8 2 3 6 6 5 13 17 19 11 8 6 12 17 7 14 14 9 12 12 15
13 15 18 21 24 24 25 27 23 11 5 6 1 2 5 5 10 10 19 24 15 14 12 14 14 7 7 5 4 6 4 6 14 3 7 7 17 8 10 14 18 14 9 11 15
14 17 20 22 24 21 27 27 13 4 3 2 0 1 7 8 5 14 20 10 19 21 20 18 7 8 3 5 7 7 8 9 16 5 8 7 10 7 10 15 18 16 10 11 14
14 17 21 23 24 20 28 15 10 2 9 2 5 1 3 6 10 22 17 19 9 7 6 1 3 3 1 6 9 6 7 8 11 1 9 18 17 11 9 9 14 10 8 9 11
15 18 21 24 20 17 26 5 9 5 8 1 6 4 6 15 16 6 22 9 3 2 4 4 5 12 12 14 17 15 19 21 19 17 12 18 18 18 12 10 13 13 6 7 8
15 19 22 23 11 13 19 7 3 3 7 5 7 7 13 10 7 12 8 4 3 7 6 4 11 17 12 15 16 17 18 19 14 14 10 15 17 16 14 13 13 17 14 8 7
16 19 22 21 4 10 15 9 4 2 2 6 4 3 6 6 6 9 2 3 4 7 6 9 16 18 13 11 12 13 16 19 18 14 9 8 22 18 20 16 14 16 16 7 10
16 20 22 16 2 10 3 14 4 1 3 6 6 3 6 7 2 13 4 3 7 6 9 9 7 9 18 16 14 14 11 14 17 13 9 8 9 14 8 15 16 17 17 11 9
16 20 18 11 5 3 12 14 2 1 5 13 6 2 12 4 8 4 14 5 8 8 1 8 22 18 15 9 12 9 11 12 13 13 11 14 8 12 9 13 17 19 20 16 9
15 18 16 7 5 11 17 7 1 6 5 8 6 9 13 4 5 6 6 6 4 5 8 16 14 2 1 15 14 15 13 16 14 7 7 12 10 12 12 21 11 16 17 16 8
15 16 11 7 8 19 12 2 5 7 5 10 8 10 13 7 7 7 8 6 7 7 16 9 6 3 4 11 7 1 5 4 4 1 5 3 9 15 11 10 18 18 18 17 10
14 11 5 7 17 15 5 5 9 4 6 5 6 11 5 10 4 12 7 6 7 2 8 6 8 6 8 4 6 8 2 2 4 3 3 4 6 5 5 12 14 16 16 12 9
14 6 3 11 17 11 5 6 6 6 3 7 10 5 5 5 2 8 4 3 3 9 3 5 6 3 11 4 8 6 10 15 7 4 4 3 5 7 14 19 17 10 11 9 8
9 4 3 17 13 4 5 2 3 4 2 3 1 2 4 5 7 7 6 2 6 8 8 3 7 4 10 5 2 4 10 7 4 4 4 2 3 9 25 27 16 7 9 8 8
4 3 5 15 7 5 4 6 4 4 1 3 3 4 6 5 3 4 4 7 4 13 14 6 4 7 7 5 10 8 9 5 5 5 3 3 1 14 24 25 10 11 6 0 5
2 3 8 12 4 2 2 5 3 3 1 2 3 5 5 4 4 3 4 2 8 13 9 3 3 5 10 5 2 8 14 6 3 5 4 3 3 20 28 20 12 13 13 15 16
2 2 5 5 3 3 5 3 2 2 1 1 3 4 1 3 4 4 4 5 10 14 4 7 3 5 8 2 11 7 23 19 3 2 10 5 6 21 27 21 16 19 19 18 20
2 3 4 5 1 5 2 3 5 3 2 3 5 3 4 3 4 6 7 7 17 8 4 11 3 3 3 4 7 13 22 22 13 4 7 9 14 24 27 24 23 19 23 23 24
3 1 3 2 3 1 3 3 2 5 0 1 3 3 2 4 4 3 5 15 6 3 7 4 3 5 8 3 7 20 16 23 21 16 8 12 14 21 22 19 18 19 25 28 28
3 4 1 2 1 1 1 2 1 4 2 4 3 4 5 5 7 8 12 4 5 6 7 3 3 3 2 7 5 16 19 17 18 19 10 12 14 18 18 17 27 24 25 27 25
4 3 4 3 1 3 3 3 2 1 3 6 6 6 2 7 8 14 12 14 14 8 4 4 3 3 3 3 1 6 20 10 13 18 10 10 10 15 17 24 23 22 24 24 23
Wind_Direction
29 18 10 7 8 2 355 354 352 349 347 344 342 341 341 337 331 8 48 109 336 330 343 347 1 353 334 305 260 130 274 269 260 248 291 325 359 349 311 253 328 297 4 324 164
26 22 8 2 4 2 356 353 349 345 340 338 337 337 335 337 331 350 103 325 327 345 353 355 335 337 324 281 300 186 222 252 224 331 305 298 313 316 331 320 295 309 350 1 352
27 18 7 0 357 357 350 348 343 338 336 334 331 331 331 334 323 260 69 334 344 354 356 326 315 342 292 310 259 296 253 310 308 301 294 287 299 249 294 289 119 338 322 336 321
24 15 6 358 354 351 343 340 336 331 329 328 325 325 330 343 6 252 340 336 342 348 344 336 349 333 263 274 283 328 274 277 285 326 322 313 278 284 240 262 255 295 294 295 324
17 10 4 355 350 343 337 334 333 330 328 324 318 322 345 2 254 309 329 330 328 345 348 333 309 295 249 277 303 256 272 298 306 299 292 287 280 275 280 288 271 286 291 296 280
12 6 358 353 347 341 334 332 330 328 329 327 327 315 26 309 248 281 318 321 295 300 266 283 247 265 264 257 229 286 308 297 295 283 280 270 269 269 272 299 278 280 279 273 272
6 0 354 353 347 342 337 334 328 326 329 329 327 271 258 240 319 318 331 329 307 282 248 256 257 226 298 293 269 278 305 297 279 276 251 285 277 257 295 293 279 256 280 286 275
359 356 354 352 348 343 341 336 329 327 340 338 339 186 249 296 310 323 327 318 305 285 268 272 263 233 215 248 300 272 244 279 274 240 245 175 262 273 279 274 279 272 253 264 269
356 355 354 351 349 344 343 338 346 356 354 346 216 119 280 314 337 325 326 303 307 300 285 277 247 232 211 230 279 219 267 243 284 208 263 203 277 281 260 253 263 268 264 256 267
353 355 351 349 346 345 348 334 346 66 343 197 282 317 291 307 312 316 319 304 276 303 335 220 221 242 242 211 260 240 240 248 257 228 309 293 283 273 276 265 262 271 262 262 253
350 352 351 347 348 354 354 14 13 353 31 238 282 257 284 305 310 293 313 295 296 31 299 252 249 250 252 233 245 264 265 270 268 278 277 265 271 275 261 261 276 277 250 266 280
348 349 349 349 352 1 18 71 147 273 318 292 252 253 276 283 307 306 329 308 344 293 301 308 261 273 268 272 278 282 293 283 275 272 248 274 276 275 266 254 246 266 268 229 260
346 348 348 349 0 350 49 47 333 264 244 295 247 287 293 316 289 298 350 282 269 286 279 271 269 297 295 299 288 266 268 273 269 286 274 278 273 275 263 248 245 253 255 214 215
346 347 349 352 70 349 52 351 344 271 61 311 352 22 357 293 278 309 287 298 318 284 283 274 266 278 308 295 283 285 280 278 271 267 265 194 283 266 255 240 240 246 254 239 211
345 346 350 11 344 20 322 333 329 51 34 310 324 340 341 338 301 294 333 323 271 294 27 281 305 310 313 298 305 254 307 291 280 259 270 239 252 259 223 237 234 228 241 249 210
343 345 350 349 6 337 329 331 105 40 313 337 341 331 348 309 302 310 330 342 291 304 285 286 296 249 311 300 278 270 281 271 257 237 244 228 207 272 223 229 244 235 239 237 190
339 340 349 355 340 335 335 64 37 94 354 311 327 343 332 311 317 6 334 12 30 346 340 330 303 289 31 311 321 112 285 308 352 343 231 271 203 250 292 262 233 232 228 227 201
334 328 335 351 337 336 342 47 62 237 249 345 322 321 322 3 333 330 335 356 46 354 310 342 327 10 337 319 274 312 285 268 278 227 246 174 240 250 28 336 292 244 228 221 204
335 333 348 347 338 339 66 49 197 212 271 339 328 8 319 328 268 339 333 301 50 34 24 320 280 275 301 349 342 340 354 293 258 213 257 218 279 293 354 311 300 260 213 207 188
337 331 11 343 338 358 68 202 208 235 346 63 355 94 300 298 342 355 324 321 332 22 31 273 290 308 337 351 307 320 348 325 338 286 268 277 284 348 335 330 337 175 171 196 194
337 31 356 346 351 45 105 225 266 257 255 128 221 291 257 299 281 302 283 299 24 347 336 278 237 292 327 5 320 347 346 338 281 259 283 318 74 354 340 327 7 53 90 53 215
49 9 349 352 46 42 112 195 237 279 310 292 220 234 234 307 292 278 278 280 349 350 322 305 287 294 310 283 308 15 349 327 264 340 328 284 47 358 345 331 41 61 77 72 85
96 251 350 0 84 331 310 290 261 270 247 10 275 204 161 266 324 242 285 273 315 339 335 352 322 318 348 2 7 9 360 358 312 255 16 15 328 343 349 359 30 65 66 73 78
90 34 335 39 96 128 129 301 308 273 249 245 262 304 359 323 242 281 297 303 319 323 7 335 278 252 264 328 352 3 13 10 17 23 324 29 344 348 350 357 25 47 64 66 65
21 223 178 286 338 113 116 172 284 335 258 296 298 221 152 300 309 247 265 317 302 20 352 347 281 312 313 213 51 33 16 15 24 2 29 348 10 5 354 355 15 46 60 61 59
136 132 347 171 211 191 357 240 274 300 168 279 199 262 192 218 195 289 315 339 281 323 332 337 295 320 347 144 91 39 19 24 25 7 354 358 31 14 358 10 30 32 51 54 56
120 108 102 310 84 89 227 238 223 338 246 233 275 313 259 235 242 262 260 258 261 295 306 314 306 352 303 244 71 15 13 16 33 24 344 10 334 339 9 29 25 25 39 46 47